Moses Lake, WA
on Wednesday, February 27, 2013

Wednesday
Previous Day Next Day
Daily Summary
 ActualAverageRecord
Temperature
Mean Temperature °F 39°F  
Max Temperature 51°F 49°F 63°F (2005)
Min Temperature 25°F 28°F 14°F (2011)
Degree Days
Heating Degree Days 27 26  
Month to date heating degree days 743 805  
Since 1 July heating degree days 4097 4479  
Moisture
Dew Point 26°F   
Average Humidity 62    
Maximum Humidity 85    
Minimum Humidity 39    
Precipitation
Precipitation 0.00 in 0.02 in 0.64 in (1999)
Month to date precipitation 0.01 0.77  
Year to date precipitation 0.29 1.91  
Wind
Wind Speed 4 mph   
Max Wind Speed 9 mph   
Max Gust Speed 12 mph   
Visibility 10 miles   
Events     

Key: T is trace of precipitation, MM is missing value
Source: NWS Daily Summary
Time(PST)TemperatureDew PointHumidity Pressure Visibility Wind DirectionWind SpeedGust SpeedPrecipitationEvents Conditions
12:52 AM 30.0°F 24.1°F 79% 30.22 in 10.0 miles Calm Calm - N/A   Clear
1:52 AM 28.0°F 24.1°F 85% 30.23 in 10.0 miles North 5.8 mph - N/A   Clear
2:52 AM 28.9°F 24.1°F 82% 30.21 in 10.0 miles SE 4.6 mph - N/A   Clear
3:52 AM 27.0°F 21.9°F 81% 30.22 in 10.0 miles North 4.6 mph - N/A   Clear
4:52 AM 26.1°F 21.9°F 84% 30.23 in 10.0 miles North 6.9 mph - N/A   Clear
5:52 AM 28.0°F 21.9°F 78% 30.23 in 10.0 miles SE 4.6 mph - N/A   Clear
6:52 AM 30.9°F 24.1°F 76% 30.27 in 10.0 miles Calm Calm - N/A   Overcast
7:52 AM 30.0°F 25.0°F 82% 30.28 in 10.0 miles North 3.5 mph - N/A   Scattered Clouds
8:52 AM 35.1°F 27.0°F 72% 30.31 in 10.0 miles South 3.5 mph - N/A   Clear
9:52 AM 37.0°F 26.1°F 65% 30.31 in 10.0 miles Calm Calm - N/A   Clear
10:52 AM 39.9°F 26.1°F 58% 30.31 in 10.0 miles Calm Calm - N/A   Clear
11:52 AM 43.0°F 27.0°F 53% 30.29 in 10.0 miles SE 4.6 mph - N/A   Clear
12:52 PM 44.1°F 28.0°F 53% 30.30 in 10.0 miles SSE 6.9 mph - N/A   Partly Cloudy
1:52 PM 46.4°F 26.6°F 46% 30.26 in 10.0 miles SE 3.5 mph - N/A   Clear
2:52 PM 50.0°F 27.0°F 41% 30.27 in 10.0 miles SSE 5.8 mph - N/A   Clear
3:52 PM 48.9°F 26.1°F 41% 30.27 in 10.0 miles South 3.5 mph - N/A   Partly Cloudy
4:52 PM 48.0°F 28.0°F 46% 30.27 in 10.0 miles SSE 3.5 mph - N/A   Clear
5:52 PM 45.0°F 28.0°F 52% 30.26 in 10.0 miles ESE 3.5 mph - N/A   Clear
6:52 PM 43.0°F 28.0°F 56% 30.25 in 10.0 miles SE 5.8 mph - N/A   Overcast
7:52 PM 42.1°F 28.9°F 60% 30.25 in 10.0 miles Calm Calm - N/A   Partly Cloudy
8:52 PM 41.0°F 28.9°F 62% 30.25 in 10.0 miles NNW 3.5 mph - N/A   Overcast
9:52 PM 39.9°F 30.9°F 70% 30.26 in 10.0 miles NE 4.6 mph - N/A   Overcast
10:52 PM 41.0°F 30.9°F 67% 30.25 in 10.0 miles Calm Calm - N/A   Overcast
11:52 PM 39.2°F 30.2°F 70% 30.23 in 10.0 miles NNW 4.6 mph - N/A   Overcast
Moon Phase
Feb. 27 Mar. 04 Mar. 11 Mar. 19 Mar. 27
Sunrise:06:40 AM (PST) Moon Rise:08:20 PM (PST)2/27
Sunset:05:40 PM (PST) Moon Set:07:07 AM (PST)2/27

Copyright © 2014 The Weather Underground, Inc.